[[{"header":{"parameterUnit":"m.s-1","parameterCategory":1,"la1":30.2991,"la2":30.254,"lo1":-89.0895,"lo2":-89.0444,"dy":0.0017,"dx":0.0017,"nx":28,"ny":28,"refTime":"2024-05-15T21:00:00:Z","depth":0,"parameterNumber":2,"parameterNumberName":"U-component_of_WINDS"},"data":[0,0,0,0,0,0,0,0,0,0,0,0,0,0,0,0,0,0,0,0,0,0,0,0,0,0,0,0,0,0,0,0,0,0,0,0,0,0,0,0,0,0,0,0,0,0,0,0,0,0,0,0,0,0,0,0,0,0,-0.0319,-0.0319,0,-0.0321,-0.0321,-0.0321,-0.0322,-0.0322,-0.0322,-0.0322,-0.0324,-0.0324,-0.0324,0,0,0,0,0,0,0,0,0,0,0,0,0,-0.0312,-0.0312,-0.0319,-0.0319,-0.0319,-0.0321,-0.0321,-0.0321,-0.0322,-0.0322,-0.0322,-0.0322,-0.0324,-0.0324,-0.0324,0,0,0,0,0,0,0,0,0,0,0,0,0,-0.0314,-0.0312,-0.0319,-0.0319,-0.0319,-0.0321,-0.0321,-0.0321,-0.0322,-0.0322,-0.0322,-0.0322,-0.0324,-0.0324,-0.0324,-0.0325,0,0,-0.0324,-0.0324,0,0,0,0,0,0,0,0,-0.0314,-0.0315,-0.0319,-0.0319,-0.0319,-0.0321,-0.0319,-0.0323,-0.0322,-0.0321,-0.0322,-0.0322,-0.0323,-0.0323,-0.0323,-0.0325,-0.0325,-0.0324,-0.0324,-0.0324,-0.0324,0,0,0,0,0,0,0,-0.0314,-0.0315,-0.032,-0.0319,-0.0319,-0.0318,-0.0319,-0.032,-0.0322,-0.0321,-0.0321,-0.0321,-0.0323,-0.0323,-0.0324,-0.0325,-0.0324,-0.0324,-0.0324,-0.0324,-0.0325,-0.0325,0,0,0,0,0,0,-0.0314,-0.0314,-0.032,-0.032,-0.0317,-0.0319,-0.0319,-0.032,-0.0322,-0.0322,-0.0321,-0.0321,-0.0323,-0.0323,-0.0324,-0.0323,-0.0324,-0.0324,-0.0324,-0.0325,-0.0325,-0.0325,0,0,0,0,0,0,-0.0314,-0.0314,-0.0319,-0.0317,-0.0318,-0.0319,-0.032,-0.0321,-0.0321,-0.0322,-0.0322,-0.0322,-0.0323,-0.0323,-0.0324,-0.0323,-0.0324,-0.0324,-0.0325,-0.0325,-0.0325,-0.0324,0,0,0,0,0,0,-0.0314,-0.0314,-0.0316,-0.0317,-0.0318,-0.0321,-0.032,-0.0321,-0.0321,-0.0321,-0.0323,-0.0323,-0.0323,-0.0324,-0.0324,-0.0324,-0.0325,-0.0325,-0.0325,-0.0325,-0.0324,-0.0324,-0.0324,0,0,0,0,0,-0.0313,-0.0316,-0.0316,-0.0316,-0.032,-0.0321,-0.0321,-0.0322,-0.0321,-0.0322,-0.0322,-0.0323,-0.0323,-0.0324,-0.0324,-0.0324,-0.0325,-0.0325,-0.0325,-0.0324,-0.0324,-0.0324,0,0,0,0,0,0,-0.0315,-0.0316,-0.0316,-0.0319,-0.032,-0.0321,-0.0322,-0.0322,-0.0323,-0.0323,-0.0323,-0.0323,-0.0323,-0.0324,-0.0324,-0.0323,-0.0324,-0.0324,-0.0323,-0.0323,-0.0323,-0.0323,-0.0325,0,0,0,0,0,-0.0316,-0.0317,-0.0318,-0.0321,-0.0321,-0.0321,-0.0322,-0.0322,-0.0323,-0.0323,-0.0323,-0.0323,-0.0323,-0.0323,-0.0323,-0.0324,-0.0323,-0.0323,-0.0323,-0.0323,-0.0323,-0.0321,-0.032,-0.0324,-0.0324,-0.0324,0,0,-0.0318,-0.0318,-0.0319,-0.0321,-0.0321,-0.0322,-0.0322,-0.0323,-0.0323,-0.0323,-0.0323,-0.0323,-0.0323,-0.0323,-0.0323,-0.0323,-0.0321,-0.0323,-0.0323,-0.0323,-0.032,-0.032,-0.032,-0.0324,-0.0324,-0.0324,0,0,-0.0321,-0.0322,-0.0323,-0.0323,-0.0323,-0.0323,-0.0323,-0.0324,-0.0323,-0.0324,-0.0323,-0.0322,-0.0323,-0.0322,-0.0322,-0.0321,-0.032,-0.0321,-0.032,-0.0318,-0.0317,-0.0317,-0.0315,-0.0314,-0.0321,-0.0321,-0.0321,0,-0.0323,-0.0324,-0.0324,-0.0324,-0.0324,-0.0323,-0.0324,-0.0324,-0.0324,-0.0323,-0.0323,-0.0322,-0.0322,-0.0321,-0.032,-0.032,-0.0319,-0.0321,-0.0317,-0.0317,-0.0317,-0.0315,-0.0314,-0.0321,-0.0321,-0.0321,-0.0321,0,-0.0326,-0.0326,-0.0327,-0.0326,-0.0326,-0.0327,-0.0325,-0.0325,-0.0324,-0.0323,-0.0322,-0.0321,-0.032,-0.032,-0.032,-0.0317,-0.0317,-0.0317,-0.0318,-0.0316,-0.0314,-0.0314,-0.0321,-0.0321,-0.0321,-0.0321,0,0,-0.0332,-0.0329,-0.0329,-0.0328,-0.0327,-0.0327,-0.0326,-0.0324,-0.0323,-0.0323,-0.0321,-0.032,-0.0319,-0.0318,-0.0318,-0.0316,-0.0312,-0.0316,-0.0315,-0.0314,-0.0307,-0.0306,-0.0305,-0.0312,-0.0312,-0.0312,-0.0306,0,-0.0334,-0.0333,-0.0332,-0.0331,-0.033,-0.0328,-0.0327,-0.0325,-0.0323,-0.0321,-0.032,-0.0318,-0.0318,-0.0317,-0.0315,-0.0313,-0.0311,-0.0314,-0.0309,-0.0309,-0.0308,-0.0305,-0.0305,-0.03,-0.0306,-0.0306,-0.0305,0,-0.0337,-0.0336,-0.0334,-0.033,-0.033,-0.0329,-0.0326,-0.0325,-0.0322,-0.0321,-0.0318,-0.0317,-0.0314,-0.0315,-0.0309,-0.0311,-0.0309,-0.0307,-0.0307,-0.0306,-0.0307,-0.0303,-0.0299,-0.0297,-0.0305,-0.0305,-0.0305,0,-0.034,-0.0338,-0.0336,-0.0335,-0.0331,-0.033,-0.0328,-0.0325,-0.0323,-0.032,-0.0318,-0.0315,-0.0313,-0.031,-0.0307,-0.0308,-0.0301,-0.0302,-0.0298,-0.0298,-0.0297,-0.0297,-0.0292,-0.0297,-0.0297,-0.0297,-0.0297,0,-0.0343,-0.0342,-0.0337,-0.0336,-0.0334,-0.0331,-0.0329,-0.0326,-0.0323,-0.032,-0.0318,-0.0315,-0.0312,-0.0308,-0.0305,-0.03,-0.03,-0.0297,-0.0296,-0.0297,-0.0297,-0.0295,-0.0295,-0.0297,-0.0297,-0.0297,-0.0297,0,-0.0346,-0.0343,-0.0341,-0.0336,-0.0335,-0.0333,-0.0329,-0.0327,-0.0324,-0.032,-0.0319,-0.0315,-0.031,-0.0306,-0.03,-0.0298,-0.0292,-0.0292,-0.0293,-0.0292,-0.0289,-0.0288,-0.0281,-0.0279,-0.0287,-0.0287,-0.0287,0,-0.0348,-0.0347,-0.0341,-0.0339,-0.0337,-0.0334,-0.0331,-0.0328,-0.0325,-0.0319,-0.0317,-0.0312,-0.0308,-0.03,-0.0295,-0.0289,-0.0288,-0.0286,-0.0288,-0.0287,-0.0286,-0.0286,-0.0285,-0.0286,-0.0286,-0.0286,-0.0286,0,-0.035,-0.0348,-0.0345,-0.034,-0.0337,-0.0333,-0.033,-0.0328,-0.0323,-0.0319,-0.0314,-0.0311,-0.0303,-0.0297,-0.029,-0.0287,-0.0285,-0.0285,-0.0284,-0.0284,-0.0284,-0.0282,-0.0291,-0.0285,-0.0285,-0.0285,-0.0285,-0.0285,-0.0352,-0.035,-0.0345,-0.0341,-0.0337,-0.0333,-0.033,-0.0325,-0.0321,-0.0315,-0.0312,-0.0306,-0.03,-0.0291,-0.0287,-0.0281,-0.0281,-0.0279,-0.0279,-0.0278,-0.0277,-0.0285,-0.028,-0.028,-0.028,-0.028,-0.028,0,-0.0354,-0.035,-0.0345,-0.0339,-0.0335,-0.0333,-0.0327,-0.0324,-0.0319,-0.0313,-0.0308,-0.03,-0.0293,-0.0287,-0.028,-0.0276,-0.0274,-0.0274,-0.0274,-0.0272,-0.0279,-0.028,-0.0275,-0.0275,-0.0275,-0.0275,-0.0275,-0.0275,-0.0354,-0.0349,-0.0346,-0.0338,-0.0334,-0.0328,-0.0325,-0.032,-0.0315,-0.0306,-0.0301,-0.0296,-0.029,-0.0281,-0.0274,-0.0272,-0.0269,-0.0268,-0.0266,-0.0272,-0.0273,-0.0273,-0.0274,-0.0268,-0.0268,-0.026,-0.026,-0.026]},{"header":{"parameterUnit":"m.s-1","parameterCategory":1,"la1":30.2991,"la2":30.254,"lo1":-89.0895,"lo2":-89.0444,"dy":0.0017,"dx":0.0017,"nx":28,"ny":28,"refTime":"2024-05-15T21:00:00:Z","depth":0,"parameterNumber":3,"parameterNumberName":"V-component_of_WINDS"},"data":[0,0,0,0,0,0,0,0,0,0,0,0,0,0,0,0,0,0,0,0,0,0,0,0,0,0,0,0,0,0,0,0,0,0,0,0,0,0,0,0,0,0,0,0,0,0,0,0,0,0,0,0,0,0,0,0,0,0,-1.811,-1.8109,0,-1.8094,-1.8094,-1.8094,-1.8081,-1.8081,-1.8081,-1.8081,-1.8064,-1.8064,-1.8064,0,0,0,0,0,0,0,0,0,0,0,0,0,-1.8127,-1.8127,-1.811,-1.8109,-1.8109,-1.8094,-1.8094,-1.8094,-1.8081,-1.8081,-1.8081,-1.8081,-1.8064,-1.8064,-1.8064,0,0,0,0,0,0,0,0,0,0,0,0,0,-1.8116,-1.8127,-1.811,-1.8101,-1.81,-1.8094,-1.8094,-1.8094,-1.8081,-1.8081,-1.8081,-1.8081,-1.8064,-1.8064,-1.8063,-1.8064,0,0,-1.8062,-1.8062,0,0,0,0,0,0,0,0,-1.8117,-1.8116,-1.8103,-1.8102,-1.8101,-1.8089,-1.8094,-1.8084,-1.8081,-1.8088,-1.8081,-1.8081,-1.8073,-1.8072,-1.8069,-1.8064,-1.8063,-1.8062,-1.8062,-1.8061,-1.8061,0,0,0,0,0,0,0,-1.8118,-1.8116,-1.8103,-1.8102,-1.8101,-1.8098,-1.8096,-1.8092,-1.8082,-1.8088,-1.8087,-1.8085,-1.8072,-1.807,-1.8069,-1.8063,-1.8062,-1.8062,-1.8061,-1.8061,-1.8056,-1.8056,0,0,0,0,0,0,-1.812,-1.8117,-1.8104,-1.8103,-1.8109,-1.8098,-1.8096,-1.8093,-1.8082,-1.808,-1.8085,-1.8085,-1.807,-1.8069,-1.8068,-1.8067,-1.8061,-1.8061,-1.8061,-1.8056,-1.8056,-1.8056,0,0,0,0,0,0,-1.812,-1.8119,-1.8105,-1.811,-1.8108,-1.8097,-1.8095,-1.8093,-1.809,-1.808,-1.8078,-1.8085,-1.807,-1.8069,-1.8065,-1.8067,-1.8061,-1.806,-1.8055,-1.8056,-1.8056,-1.8067,0,0,0,0,0,0,-1.8121,-1.8119,-1.812,-1.811,-1.8107,-1.8103,-1.8095,-1.8093,-1.809,-1.8089,-1.8079,-1.8077,-1.807,-1.8066,-1.8065,-1.8066,-1.806,-1.8055,-1.8056,-1.8056,-1.8066,-1.8067,-1.8068,0,0,0,0,0,-1.8121,-1.8123,-1.812,-1.8118,-1.8108,-1.8103,-1.8101,-1.8093,-1.809,-1.809,-1.8083,-1.8077,-1.8067,-1.8066,-1.8064,-1.8065,-1.8055,-1.8055,-1.8056,-1.8066,-1.8067,-1.8068,0,0,0,0,0,0,-1.8133,-1.8122,-1.8118,-1.8117,-1.8111,-1.8101,-1.8101,-1.8095,-1.809,-1.8089,-1.8079,-1.8077,-1.8074,-1.8069,-1.8069,-1.8065,-1.806,-1.806,-1.8068,-1.8069,-1.807,-1.8072,-1.806,0,0,0,0,0,-1.8136,-1.8133,-1.8123,-1.8123,-1.812,-1.8111,-1.8108,-1.8103,-1.8096,-1.8093,-1.8086,-1.808,-1.8075,-1.8072,-1.8067,-1.8065,-1.8063,-1.8065,-1.8066,-1.8067,-1.8067,-1.8065,-1.8066,-1.8057,-1.8057,-1.8057,0,0,-1.8141,-1.8135,-1.8133,-1.8125,-1.812,-1.8117,-1.8109,-1.8106,-1.8103,-1.8093,-1.8089,-1.8084,-1.8076,-1.8073,-1.8071,-1.8069,-1.8069,-1.8068,-1.8069,-1.8068,-1.8066,-1.8067,-1.8067,-1.8057,-1.8057,-1.8057,0,0,-1.8149,-1.8144,-1.8143,-1.8138,-1.813,-1.8124,-1.8123,-1.8114,-1.811,-1.8106,-1.8098,-1.8094,-1.8086,-1.808,-1.8077,-1.8081,-1.8075,-1.808,-1.8085,-1.8083,-1.8084,-1.8084,-1.8085,-1.8086,-1.808,-1.808,-1.808,0,-1.8156,-1.8151,-1.8143,-1.814,-1.8136,-1.8127,-1.8126,-1.8121,-1.8112,-1.8109,-1.8106,-1.8096,-1.809,-1.8085,-1.8086,-1.8083,-1.8082,-1.8081,-1.8085,-1.8085,-1.8085,-1.8086,-1.8087,-1.8081,-1.808,-1.808,-1.808,0,-1.816,-1.8157,-1.8157,-1.8148,-1.8145,-1.8142,-1.8133,-1.8131,-1.8125,-1.8119,-1.8114,-1.8107,-1.81,-1.8098,-1.8093,-1.8092,-1.8091,-1.8087,-1.8081,-1.8087,-1.8088,-1.8088,-1.8081,-1.8081,-1.8081,-1.8081,0,0,-1.8175,-1.8162,-1.8162,-1.8157,-1.8148,-1.8145,-1.8142,-1.8135,-1.8132,-1.8126,-1.8123,-1.8116,-1.8112,-1.8107,-1.8101,-1.8099,-1.8103,-1.8095,-1.8095,-1.8096,-1.8101,-1.8104,-1.8104,-1.8099,-1.8099,-1.8099,-1.8101,0,-1.818,-1.8175,-1.8167,-1.8165,-1.8161,-1.8152,-1.8149,-1.8142,-1.8136,-1.8132,-1.8125,-1.812,-1.8115,-1.8112,-1.811,-1.8103,-1.8103,-1.8102,-1.8095,-1.8095,-1.8097,-1.8105,-1.8108,-1.8111,-1.8101,-1.8101,-1.8101,0,-1.8186,-1.8181,-1.8177,-1.8168,-1.8166,-1.8164,-1.8156,-1.8152,-1.8144,-1.814,-1.8135,-1.8128,-1.8124,-1.8119,-1.8113,-1.8112,-1.8108,-1.8104,-1.8104,-1.8103,-1.8098,-1.8103,-1.8112,-1.8112,-1.8102,-1.8102,-1.8102,0,-1.8197,-1.8188,-1.8185,-1.8182,-1.817,-1.8169,-1.8164,-1.8156,-1.8152,-1.8145,-1.8143,-1.8136,-1.8132,-1.8126,-1.8117,-1.8115,-1.8111,-1.8106,-1.8107,-1.8107,-1.8106,-1.8106,-1.8114,-1.8105,-1.8105,-1.8105,-1.8105,0,-1.8203,-1.8201,-1.8189,-1.8187,-1.8185,-1.8176,-1.8173,-1.8167,-1.816,-1.8156,-1.8148,-1.8144,-1.8133,-1.8128,-1.8121,-1.8116,-1.8114,-1.811,-1.8108,-1.8111,-1.8111,-1.8108,-1.8107,-1.8105,-1.8105,-1.8105,-1.8105,0,-1.8214,-1.8206,-1.8202,-1.8191,-1.8189,-1.8187,-1.8178,-1.8175,-1.8169,-1.8164,-1.8162,-1.8151,-1.8145,-1.8136,-1.8126,-1.8121,-1.8117,-1.8114,-1.812,-1.8119,-1.812,-1.812,-1.8125,-1.8125,-1.8116,-1.8117,-1.8117,0,-1.8219,-1.8217,-1.8207,-1.8204,-1.8199,-1.8194,-1.819,-1.8181,-1.8177,-1.8168,-1.8166,-1.8159,-1.8153,-1.8142,-1.8133,-1.8126,-1.8122,-1.8125,-1.8121,-1.8124,-1.8122,-1.8122,-1.8121,-1.8126,-1.8126,-1.8126,-1.8126,0,-1.8228,-1.8224,-1.8219,-1.8212,-1.8207,-1.8202,-1.8195,-1.8193,-1.8182,-1.8178,-1.8172,-1.8167,-1.8157,-1.815,-1.8141,-1.8135,-1.8128,-1.8127,-1.8127,-1.8129,-1.8132,-1.813,-1.8122,-1.8127,-1.8127,-1.8127,-1.8127,-1.8127,-1.8235,-1.8233,-1.8225,-1.8219,-1.8214,-1.8208,-1.8205,-1.8198,-1.8192,-1.8184,-1.8179,-1.8172,-1.8163,-1.8151,-1.8145,-1.8139,-1.8137,-1.8136,-1.8136,-1.8136,-1.8137,-1.8134,-1.8138,-1.8138,-1.8138,-1.8138,-1.8138,0,-1.8243,-1.8237,-1.8232,-1.8224,-1.8219,-1.8214,-1.8207,-1.8203,-1.8198,-1.819,-1.8184,-1.8176,-1.8169,-1.8159,-1.8151,-1.8148,-1.8145,-1.8146,-1.8146,-1.8145,-1.814,-1.8141,-1.8149,-1.8149,-1.8149,-1.8149,-1.8149,-1.8149,-1.8246,-1.8243,-1.8238,-1.823,-1.8225,-1.8219,-1.8215,-1.8209,-1.8203,-1.8195,-1.8189,-1.8183,-1.8174,-1.8165,-1.8158,-1.8155,-1.8152,-1.8154,-1.8151,-1.8146,-1.8145,-1.8144,-1.8145,-1.8154,-1.8154,-1.8156,-1.8156,-1.8156]}]]